When you browse on this site, cookies collect data to enhance your experience and personalize the content and advertising you see.
Visit our Privacy Policy to learn more. By continuing to use the site, you agree to this use of cookies and data.
  • In Czech Republic
  • List of Countries
  • For 7 days
  • Water Temperature
  • Satellite Maps
  • Weather Map
  • Weather Widgets
  • user-avatar
    Login

    Hourly Weather Stepanakert

    Today, 16 December, Sunday

    Time Temperature Precipitation Wind Pressure Humidity
    00:00 +4°C° 0 mm 1 mps 697 mmHg 57%
    01:00 +4°C° 0 mm 1 mps 697 mmHg 57%
    02:00 +4°C° 0 mm 1 mps 697 mmHg 57%
    03:00 +3°C° 0 mm 2 mps 697 mmHg 58%
    04:00 +3°C° 0 mm 2 mps 697 mmHg 58%
    05:00 +3°C° 0 mm 2 mps 697 mmHg 58%
    06:00 +4°C° 0 mm 1 mps 696 mmHg 57%
    07:00 +5°C° 0 mm 1 mps 697 mmHg 55%
    08:00 +6°C° 0 mm 1 mps 697 mmHg 52%
    09:00 +7°C° 0 mm 1 mps 697 mmHg 49%
    10:00 +8°C° 0 mm 1 mps 697 mmHg 47%
    11:00 +9°C° 0 mm 2 mps 697 mmHg 45%
    12:00 +10°C° 0 mm 2 mps 697 mmHg 43%
    13:00 +9°C° 0 mm 2 mps 697 mmHg 44%
    14:00 +9°C° 0 mm 2 mps 697 mmHg 46%
    15:00 +9°C° 0 mm 2 mps 697 mmHg 48%
    16:00 +8°C° 0 mm 2 mps 697 mmHg 52%
    17:00 +6°C° 0 mm 2 mps 697 mmHg 56%
    18:00 +6°C° 0 mm 1 mps 697 mmHg 61%
    19:00 +5°C° 0 mm 2 mps 697 mmHg 64%
    20:00 +4°C° 0 mm 2 mps 697 mmHg 67%
    21:00 +4°C° 0 mm 2 mps 697 mmHg 70%
    22:00 +4°C° 0 mm 2 mps 697 mmHg 72%
    23:00 +3°C° 0 mm 2 mps 697 mmHg 75%

    Tomorrow, 17 December, Monday

    Time Temperature Precipitation Wind Pressure Humidity
    00:00 +3°C° 0 mm 2 mps 697 mmHg 78%
    01:00 +3°C° 0 mm 2 mps 697 mmHg 78%
    02:00 +3°C° 0 mm 2 mps 697 mmHg 78%
    03:00 +3°C° 0 mm 2 mps 697 mmHg 79%
    04:00 +4°C° 0 mm 1 mps 697 mmHg 79%
    05:00 +4°C° 0 mm 1 mps 697 mmHg 79%
    06:00 +3°C° 0 mm 1 mps 697 mmHg 80%
    07:00 +4°C° 0 mm 1 mps 697 mmHg 78%
    08:00 +3°C° 0 mm 2 mps 697 mmHg 77%
    09:00 +4°C° 0 mm 2 mps 697 mmHg 76%
    10:00 +4°C° 0 mm 2 mps 697 mmHg 75%
    11:00 +5°C° 0 mm 2 mps 696 mmHg 74%
    12:00 +5°C° 0 mm 2 mps 696 mmHg 73%
    13:00 +5°C° 0 mm 2 mps 696 mmHg 75%
    14:00 +5°C° 0 mm 2 mps 695 mmHg 77%
    15:00 +4°C° 0 mm 2 mps 695 mmHg 79%
    16:00 +4°C° 0.1 mm 2 mps 695 mmHg 82%
    17:00 +4°C° 0.1 mm 2 mps 695 mmHg 84%
    18:00 +3°C° 0.1 mm 2 mps 695 mmHg 87%
    19:00 +3°C° 0.2 mm 2 mps 695 mmHg 88%
    20:00 +3°C° 0.2 mm 2 mps 695 mmHg 89%
    21:00 +4°C° 0.2 mm 1 mps 695 mmHg 89%
    22:00 +4°C° 0.5 mm 1 mps 695 mmHg 90%
    23:00 +4°C° 0.5 mm 1 mps 695 mmHg 90%

    Day after tomorrow, 18 December, Tuesday

    Time Temperature Precipitation Wind Pressure Humidity
    00:00 +4°C° 0.5 mm 1 mps 695 mmHg 91%
    01:00 +4°C° 0.4 mm 1 mps 695 mmHg 91%
    02:00 +4°C° 0.4 mm 1 mps 695 mmHg 91%
    03:00 +4°C° 0.4 mm 1 mps 695 mmHg 92%
    04:00 +4°C° 0.6 mm 1 mps 694 mmHg 92%
    05:00 +4°C° 0.6 mm 1 mps 694 mmHg 92%
    06:00 +4°C° 0.6 mm 1 mps 694 mmHg 92%
    07:00 +4°C° 0.4 mm 1 mps 695 mmHg 91%
    08:00 +4°C° 0.4 mm 1 mps 695 mmHg 90%
    09:00 +4°C° 0.4 mm 1 mps 696 mmHg 89%
    10:00 +5°C° 0.2 mm 1 mps 695 mmHg 87%
    11:00 +5°C° 0.2 mm 1 mps 695 mmHg 86%
    12:00 +4°C° 0.2 mm 2 mps 695 mmHg 85%
    13:00 +4°C° 0 mm 2 mps 695 mmHg 85%
    14:00 +4°C° 0 mm 2 mps 695 mmHg 86%
    15:00 +4°C° 0 mm 2 mps 695 mmHg 86%
    16:00 +4°C° 0 mm 2 mps 696 mmHg 88%
    17:00 +4°C° 0 mm 1 mps 696 mmHg 90%
    18:00 +4°C° 0 mm 1 mps 696 mmHg 92%
    19:00 +3°C° 0 mm 1 mps 697 mmHg 91%
    20:00 +3°C° 0 mm 1 mps 697 mmHg 90%
    21:00 +3°C° 0 mm 1 mps 697 mmHg 89%
    22:00 +3°C° 0 mm 1 mps 697 mmHg 89%
    23:00 +3°C° 0 mm 1 mps 697 mmHg 89%

    19 December, Wednesday

    Time Temperature Precipitation Wind Pressure Humidity
    00:00 +3°C° 0 mm 1 mps 697 mmHg 88%
    01:00 +3°C° 0 mm 1 mps 697 mmHg 88%
    02:00 +3°C° 0 mm 1 mps 697 mmHg 87%
    03:00 +2°C° 0 mm 1 mps 697 mmHg 87%
    04:00 +2°C° 0 mm 1 mps 697 mmHg 87%
    05:00 +2°C° 0 mm 1 mps 697 mmHg 86%
    06:00 +2°C° 0 mm 1 mps 697 mmHg 86%
    07:00 +3°C° 0 mm 1 mps 697 mmHg 83%
    08:00 +4°C° 0 mm 1 mps 698 mmHg 81%
    09:00 +5°C° 0 mm 1 mps 698 mmHg 78%
    10:00 +5°C° 0 mm 1 mps 698 mmHg 76%
    11:00 +6°C° 0 mm 1 mps 697 mmHg 74%
    12:00 +6°C° 0 mm 2 mps 697 mmHg 72%
    13:00 +6°C° 0 mm 2 mps 697 mmHg 73%
    14:00 +6°C° 0 mm 2 mps 697 mmHg 74%
    15:00 +6°C° 0 mm 2 mps 696 mmHg 76%
    16:00 +6°C° 0 mm 1 mps 696 mmHg 79%
    17:00 +5°C° 0 mm 1 mps 696 mmHg 82%
    18:00 +4°C° 0 mm 1 mps 696 mmHg 85%
    19:00 +4°C° 0 mm 1 mps 696 mmHg 85%
    20:00 +4°C° 0 mm 1 mps 696 mmHg 85%
    21:00 +4°C° 0 mm 1 mps 696 mmHg 84%
    22:00 +3°C° 0 mm 0 mps 696 mmHg 84%
    23:00 +3°C° 0 mm 0 mps 696 mmHg 84%

    20 December, Thursday

    Time Temperature Precipitation Wind Pressure Humidity
    00:00 +3°C° 0 mm 0 mps 696 mmHg 84%
    01:00 +4°C° 0 mm 1 mps 695 mmHg 84%
    02:00 +3°C° 0 mm 1 mps 695 mmHg 84%
    03:00 +3°C° 0 mm 1 mps 695 mmHg 84%
    04:00 +3°C° 0 mm 1 mps 695 mmHg 83%
    05:00 +3°C° 0 mm 1 mps 694 mmHg 83%
    06:00 +4°C° 0 mm 1 mps 694 mmHg 82%
    07:00 +4°C° 0 mm 1 mps 694 mmHg 80%
    08:00 +5°C° 0 mm 1 mps 694 mmHg 78%
    09:00 +5°C° 0 mm 1 mps 694 mmHg 76%
    10:00 +6°C° 0 mm 1 mps 694 mmHg 73%
    11:00 +7°C° 0 mm 1 mps 694 mmHg 70%
    12:00 +8°C° 0 mm 1 mps 693 mmHg 68%
    13:00 +8°C° 0 mm 1 mps 693 mmHg 69%
    14:00 +8°C° 0 mm 1 mps 693 mmHg 69%
    15:00 +8°C° 0 mm 1 mps 693 mmHg 70%
    16:00 +7°C° 0 mm 1 mps 693 mmHg 74%
    17:00 +6°C° 0 mm 1 mps 693 mmHg 77%
    18:00 +4°C° 0 mm 0 mps 693 mmHg 81%
    19:00 +4°C° 0 mm 0 mps 693 mmHg 80%
    20:00 +4°C° 0 mm 0 mps 694 mmHg 80%
    21:00 +4°C° 0 mm 0 mps 694 mmHg 79%
    22:00 +4°C° 0 mm 0 mps 694 mmHg 79%
    23:00 +4°C° 0 mm 0 mps 694 mmHg 79%

    21 December, Friday

    Time Temperature Precipitation Wind Pressure Humidity
    00:00 +4°C° 0 mm 0 mps 694 mmHg 79%
    01:00 +4°C° 0.1 mm 0 mps 694 mmHg 79%
    02:00 +3°C° 0.1 mm 0 mps 694 mmHg 80%
    03:00 +3°C° 0.1 mm 0 mps 694 mmHg 80%
    04:00 +3°C° 0.1 mm 0 mps 694 mmHg 81%
    05:00 +3°C° 0.1 mm 0 mps 694 mmHg 81%
    06:00 +3°C° 0.1 mm 0 mps 694 mmHg 82%
    07:00 +4°C° 0.2 mm 1 mps 694 mmHg 82%
    08:00 +5°C° 0.2 mm 1 mps 695 mmHg 81%
    09:00 +5°C° 0.2 mm 1 mps 695 mmHg 80%
    10:00 +5°C° 0.3 mm 1 mps 695 mmHg 79%
    11:00 +6°C° 0.3 mm 1 mps 695 mmHg 77%
    12:00 +6°C° 0.3 mm 1 mps 694 mmHg 76%
    13:00 +6°C° 0.3 mm 1 mps 694 mmHg 78%
    14:00 +6°C° 0.3 mm 1 mps 694 mmHg 80%
    15:00 +5°C° 0.3 mm 1 mps 694 mmHg 82%
    16:00 +5°C° 0.3 mm 1 mps 694 mmHg 85%
    17:00 +4°C° 0.3 mm 1 mps 694 mmHg 87%
    18:00 +3°C° 0.3 mm 0 mps 695 mmHg 89%
    19:00 +3°C° 0.3 mm 0 mps 695 mmHg 89%
    20:00 +3°C° 0.3 mm 0 mps 695 mmHg 89%
    21:00 +3°C° 0.3 mm 0 mps 695 mmHg 89%
    22:00 +3°C° 0.2 mm 0 mps 695 mmHg 89%
    23:00 +3°C° 0.2 mm 0 mps 695 mmHg 88%
    Show more